Location: Unspecified
(0.0000°N, 0.0000°E)
Time: 22:57:48
(UTC+00:00)

S-56A Canister/Altair - All Passes

Search period start: 19 November 2019 00:00
Search period end: 29 November 2019 00:00
Orbit: 634 x 2498 km, 38.9° (Epoch: 17 November)

Date Brightness Start Highest point End Pass type
(mag) Time Alt. Az. Time Alt. Az. Time Alt. Az.
19 Nov - 00:21:56 10° N 00:25:37 24° NE 00:29:52 10° E night (unlit)
19 Nov - 02:24:38 10° WNW 02:29:19 35° SW 02:35:42 10° SSE visible
19 Nov - 10:55:58 10° SSW 11:08:28 31° SE 11:20:19 10° E daylight
19 Nov - 13:00:41 10° SW 13:16:01 85° SE 13:28:12 10° NE daylight
19 Nov - 15:10:24 10° W 15:21:56 31° NW 15:30:52 10° NNE daylight
19 Nov - 23:50:04 10° N 23:53:04 17° NE 23:56:19 10° E night (unlit)
20 Nov - 01:52:00 10° WNW 01:56:35 43° SW 02:02:42 10° SSE visible
20 Nov - 10:23:02 10° SSW 10:34:41 28° SE 10:46:12 10° E daylight
20 Nov - 12:27:06 10° SW 12:42:24 77° SE 12:55:11 10° NE daylight
20 Nov - 14:35:53 10° WSW 14:48:37 37° NW 14:58:33 10° NNE daylight
20 Nov - 23:18:30 10° NNE 23:20:27 13° NE 23:22:27 10° ENE night (unlit)
21 Nov - 01:19:26 10° WNW 01:23:56 53° SW 01:29:46 10° SE visible
21 Nov - 09:50:14 10° SSW 10:00:53 24° SE 10:11:49 10° E daylight
21 Nov - 11:53:39 10° SW 12:08:44 69° SE 12:22:01 10° ENE daylight
21 Nov - 14:01:34 10° WSW 14:15:15 44° NW 14:26:05 10° NNE daylight
22 Nov - 00:46:54 10° NW 00:51:21 69° SW 00:56:52 10° SE night (unlit)
22 Nov - 09:17:39 10° S 09:27:06 21° SE 09:37:06 10° ESE daylight
22 Nov - 11:20:20 10° SW 11:35:03 61° SE 11:48:42 10° ENE daylight
22 Nov - 13:27:25 10° WSW 13:41:47 51° NW 13:53:29 10° NNE daylight
22 Nov - 15:43:47 10° WNW 15:48:20 12° NW 15:52:27 10° NNW daylight
23 Nov - 00:14:24 10° NW 00:18:49 90° NE 00:24:00 10° SE night (unlit)
23 Nov - 02:22:10 10° SW 02:23:26 11° SSW 02:24:47 10° SSW visible
23 Nov - 08:45:19 10° S 08:53:21 17° SE 09:01:58 10° ESE daylight
23 Nov - 10:47:08 10° SSW 11:01:20 55° SE 11:15:12 10° ENE daylight
23 Nov - 12:53:28 10° WSW 13:08:15 58° NW 13:20:45 10° NNE daylight
23 Nov - 15:07:31 10° WNW 15:14:54 16° NW 15:21:19 10° N daylight
23 Nov - 23:41:55 10° NW 23:46:19 66° NE 23:51:07 10° SE night (unlit)
24 Nov - 01:48:26 10° SW 01:50:32 12° SSW 01:52:51 10° S visible
24 Nov - 08:13:24 10° S 08:19:36 14° SSE 08:26:16 10° ESE daylight
24 Nov - 10:14:05 10° SSW 10:27:38 48° SE 10:41:31 10° ENE daylight
24 Nov - 12:19:40 10° WSW 12:34:38 66° NW 12:47:52 10° NE daylight
24 Nov - 14:32:02 10° W 14:41:25 20° NW 14:49:29 10° N daylight
24 Nov - 23:09:28 10° NW 23:13:49 48° NE 23:18:16 10° ESE night (unlit)
25 Nov - 01:15:05 10° WSW 01:17:44 15° SSW 01:20:40 10° S night (unlit)
25 Nov - 07:42:28 10° SSE 07:45:52 11° SSE 07:49:27 10° SE daylight
25 Nov - 09:41:09 10° SSW 09:53:56 42° SE 10:07:38 10° ENE daylight
25 Nov - 11:46:02 10° SW 12:00:59 74° NW 12:14:51 10° NE daylight
25 Nov - 13:57:00 10° W 14:07:54 24° NW 14:17:19 10° N daylight
25 Nov - 22:37:00 10° NNW 22:41:17 36° NE 22:45:25 10° ESE night (unlit)
26 Nov - 00:41:54 10° W 00:45:00 18° SW 00:48:24 10° S night (unlit)
26 Nov - 09:08:22 10° SSW 09:20:17 37° SE 09:33:32 10° ENE daylight
26 Nov - 11:12:33 10° SW 11:27:18 83° NW 11:41:42 10° NE daylight
26 Nov - 13:22:18 10° W 13:34:19 29° NW 13:44:54 10° NNE daylight
26 Nov - 22:04:34 10° NNW 22:08:43 27° NE 22:12:31 10° E night (unlit)
27 Nov - 00:08:50 10° W 00:12:20 22° SW 00:16:05 10° SSE night (unlit)
27 Nov - 08:35:45 10° SSW 08:46:41 32° SE 08:59:13 10° E daylight
27 Nov - 10:39:14 10° SW 10:53:37 89° SE 11:08:25 10° NE daylight
27 Nov - 12:47:52 10° W 13:00:42 34° NW 13:12:19 10° NNE daylight
27 Nov - 21:32:08 10° NNW 21:36:05 22° NE 21:39:35 10° E night (unlit)
27 Nov - 23:35:50 10° W 23:39:44 29° SW 23:43:45 10° SSE night (unlit)
28 Nov - 08:03:17 10° SSW 08:13:08 27° SE 08:24:38 10° E daylight
28 Nov - 10:06:03 10° SW 10:19:55 80° SE 10:34:58 10° NE daylight
28 Nov - 12:13:41 10° WSW 12:27:02 39° NW 12:39:34 10° NNE daylight
28 Nov - 20:59:42 10° N 21:03:22 18° NE 21:06:34 10° ENE night (unlit)
28 Nov - 23:02:52 10° WNW 23:07:11 38° SW 23:11:23 10° SSE night (unlit)
